Location: Newark
(48.1500°N, 13.1167°E)
Time: 07:52:53
(UTC+00:00)

KAITUO 1B - Pass Details

Date: 29 November 2021
Orbit: 486 x 507 km, 97.4° (Epoch: 18 January)

Event Time Altitude Azimuth Distance (km) Brightness Sun altitude
Rises 17:07:44 0° 182° (S) 2,587 ? -17.8°
Reaches altitude 10° 17:09:53 10° 189° (S) 1,712 ? -18.2°
Maximum altitude 17:13:23 42° 261° (W) 740 ? -18.7°
Drops below altitude 10° 17:16:58 10° 334° (NNW) 1,738 ? -19.3°
Sets 17:19:09 0° 341° (NNW) 2,632 ? -19.7°
